FW0639 Weather Reports


time (UTC)temp
C
wind
direction
speed
KPH
gust
KPH
rain 1hr
cm
rain 24hr
cm
rain mn
cm
humidity
%
barometer
mb
20260904151448 21 52 1.6 11.3 0.00 0.00 0.00 46 1002.4
20260904150444 20 51 0.0 4.8 0.00 0.00 0.00 45 1002.4
20260904145421 20 346 1.6 11.3 0.00 0.00 0.00 44 1002.3
20260904144428 20 334 3.2 9.7 0.00 0.00 0.00 44 1002.4
20260904143424 19 333 1.6 9.7 0.00 0.00 0.00 44 1002.3
20260904141251 18 333 1.6 11.3 0.00 0.00 0.00 48 1002.2
20260904135200 18 333 0.0 0.0 0.00 0.00 0.00 50 1002.3
20260904134145 18 333 0.0 0.0 0.00 0.00 0.00 46 1002.4
20260904133208 18 333 0.0 3.2 0.00 0.00 0.00 45 1002.3
20260904132145 18 333 0.0 3.2 0.00 0.00 0.00 45 1002.3
20260904131138 18 333 0.0 9.7 0.00 0.00 0.00 44 1002.5
20260904130119 18 333 1.6 9.7 0.00 0.00 0.00 42 1002.4
20260904123958 18 335 0.0 11.3 0.00 0.00 0.00 39 1002.4
20260904122949 18 335 1.6 17.7 0.00 0.00 0.00 39 1002.5
20260904122013 18 335 1.6 17.7 0.00 0.00 0.00 40 1002.7
20260904121016 18 335 1.6 16.1 0.00 0.00 0.00 39 1002.8
20260904114854 18 334 4.8 19.3 0.00 0.00 0.00 38 1003.2
20260904113850 17 335 3.2 19.3 0.00 0.00 0.00 39 1003.2
20260904112902 18 336 0.0 6.4 0.00 0.00 0.00 39 1003.4
20260904111836 18 336 0.0 6.4 0.00 0.00 0.00 37 1003.5
20260904110835 18 336 1.6 6.4 0.00 0.00 0.00 37 1003.5
20260904104727 18 336 3.2 6.4 0.00 0.00 0.00 37 1003.9
20260904103704 18 337 3.2 6.4 0.00 0.00 0.00 38 1004.0
20260904102642 15 341 0.0 4.8 0.00 0.00 0.00 46 1004.0
20260904101608 14 346 0.0 0.0 0.00 0.00 0.00 52 1004.2
20260904100539 15 341 0.0 4.8 0.00 0.00 0.00 50 1004.2
20260904095517 15 340 0.0 0.0 0.00 0.00 0.00 49 1004.1
20260904093352 15 341 0.0 1.6 0.00 0.00 0.00 46 1004.1
20260904092403 14 51 0.0 0.0 0.00 0.00 0.00 51 1004.2
20260904091336 15 74 0.0 0.0 0.00 0.00 0.00 51 1004.3
20260904090325 15 342 0.0 0.0 0.00 0.00 0.00 47 1004.5
20260904085343 16 340 0.0 0.0 0.00 0.00 0.00 45 1004.5
20260904084342 16 339 0.0 0.0 0.00 0.00 0.00 44 1004.6
20260904083331 15 55 0.0 0.0 0.00 0.00 0.00 48 1004.5
20260904082335 15 72 0.0 0.0 0.00 0.00 0.00 54 1004.7
20260904081353 15 341 0.0 0.0 0.00 0.00 0.00 52 1004.6
20260904074044 15 336 1.6 11.3 0.00 0.00 0.00 48 1004.8
20260904073049 13 338 0.0 0.0 0.00 0.00 0.00 54 1004.8
20260904072020 13 118 0.0 6.4 0.00 0.00 0.00 61 1004.9
20260904070954 13 122 0.0 3.2 0.00 0.00 0.00 64 1005.0
20260904070004 13 121 0.0 0.0 0.00 0.00 0.00 64 1005.3
20260904065025 13 121 0.0 0.0 0.00 0.00 0.00 64 1005.4
20260904063955 13 124 0.0 3.2 0.00 0.00 0.00 62 1005.6
20260904063005 13 115 0.0 0.0 0.00 0.00 0.00 63 1005.4
20260904061954 13 99 0.0 0.0 0.00 0.00 0.00 63 1005.5
20260904061018 13 101 0.0 0.0 0.00 0.00 0.00 64 1005.5
20260904060012 13 110 0.0 1.6 0.00 0.00 0.00 62 1005.5
20260904055003 13 105 0.0 0.0 0.00 0.00 0.00 63 1005.6
20260904053933 13 109 0.0 0.0 0.00 0.00 0.00 63 1005.8
20260904051812 13 108 0.0 0.0 0.00 0.00 0.00 63 1006.0
20260904045733 13 110 0.0 0.0 0.00 0.00 0.00 62 1006.0
20260904044718 13 111 0.0 0.0 0.00 0.00 0.00 61 1005.9
20260904043738 13 109 0.0 0.0 0.00 0.00 0.00 61 1006.1
20260904041528 14 109 0.0 0.0 0.00 0.00 0.00 61 1006.0
20260904040512 15 118 0.0 0.0 0.00 0.00 0.00 59 1006.0
20260904035525 15 119 0.0 0.0 0.00 0.00 0.00 59 1006.1
20260904034534 15 117 0.0 0.0 0.00 0.00 0.00 59 1006.1
20260904033554 15 118 0.0 0.0 0.00 0.00 0.00 59 1006.1
20260904032613 15 116 0.0 0.0 0.00 0.00 0.00 57 1006.2
20260904031624 16 115 0.0 0.0 0.00 0.00 0.00 57 1006.2
20260904030551 16 342 0.0 0.0 0.00 0.00 0.00 57 1006.1
20260904023316 17 342 0.0 0.0 0.00 0.00 0.00 54 1005.5
20260904021137 18 340 0.0 0.0 0.00 0.00 0.00 54 1005.1
20260904015018 20 339 0.0 0.0 0.00 0.00 0.00 50 1005.0
20260904013958 20 338 0.0 0.0 0.00 0.00 0.00 48 1005.0
20260904012953 21 337 0.0 0.0 0.00 0.00 0.00 46 1005.0
20260904011947 21 336 0.0 0.0 0.00 0.00 0.00 44 1004.8
20260904011002 22 338 0.0 0.0 0.00 0.00 0.00 41 1004.8
20260904010005 22 337 0.0 0.0 0.00 0.00 0.00 38 1004.8
20260904005008 22 336 0.0 0.0 0.00 0.00 0.00 37 1004.7
20260904003959 23 337 0.0 0.0 0.00 0.00 0.00 34 1004.7
20260904003023 23 338 0.0 0.0 0.00 0.00 0.00 34 1004.7
20260904002022 24 337 0.0 0.0 0.00 0.00 0.00 29 1004.8
20260904001028 24 338 0.0 1.6 0.00 0.00 0.00 27 1004.8
20260903234810 25 347 1.6 12.9 0.00 0.00 0.00 25 1004.6
20260903232704 25 65 1.6 12.9 0.00 0.00 0.00 25 1004.3
20260903231703 25 2 3.2 12.9 0.00 0.00 0.00 25 1004.3
20260903230704 25 24 3.2 16.1 0.00 0.00 0.00 24 1004.2
20260903225706 25 349 6.4 16.1 0.00 0.00 0.00 24 1004.3
20260903224726 25 353 3.2 11.3 0.00 0.00 0.00 24 1004.3
20260903223715 26 155 1.6 11.3 0.00 0.00 0.00 23 1004.2
20260903222648 26 150 0.0 8.0 0.00 0.00 0.00 29 1004.0
20260903221709 25 38 0.0 29.0 0.00 0.00 0.00 29 1004.1
20260903220643 25 354 3.2 29.0 0.00 0.00 0.00 26 1004.0
20260903215634 25 339 0.0 6.4 0.00 0.00 0.00 27 1003.9
20260903214636 25 339 1.6 9.7 0.00 0.00 0.00 30 1003.9
20260903211314 26 180 1.6 12.9 0.00 0.00 0.00 22 1003.8
20260903205125 26 45 3.2 16.1 0.00 0.00 0.00 27 1004.2
20260903204125 26 53 4.8 16.1 0.00 0.00 0.00 25 1004.3
20260903203053 26 66 3.2 16.1 0.00 0.00 0.00 25 1004.3
20260903202112 26 52 1.6 14.5 0.00 0.00 0.00 27 1004.2
20260903195934 25 323 4.8 14.5 0.00 0.00 0.00 27 1004.3
20260903194926 25 34 3.2 14.5 0.00 0.00 0.00 25 1004.4
20260903193927 25 39 3.2 14.5 0.00 0.00 0.00 27 1004.5
20260903192859 25 349 1.6 8.0 0.00 0.00 0.00 33 1004.5
20260903191859 24 17 4.8 14.5 0.00 0.00 0.00 27 1004.6
20260903190840 24 1 4.8 16.1 0.00 0.00 0.00 27 1004.9
20260903185847 24 118 3.2 16.1 0.00 0.00 0.00 27 1004.8
20260903184836 24 2 4.8 16.1 0.00 0.00 0.00 28 1004.9
20260903183855 23 59 1.6 17.7 0.00 0.00 0.00 29 1004.9
20260903182838 23 338 4.8 17.7 0.00 0.00 0.00 28 1004.9
20260903180703 22 30 3.2 8.0 0.00 0.00 0.00 31 1004.9
20260903174503 22 3 3.2 16.1 0.00 0.00 0.00 30 1005.3
20260903173505 22 55 1.6 12.9 0.00 0.00 0.00 30 1005.3
20260903172521 22 11 3.2 12.9 0.00 0.00 0.00 34 1005.2
20260903171544 22 40 1.6 12.9 0.00 0.00 0.00 31 1005.2
20260903170541 21 343 1.6 17.7 0.00 0.00 0.00 33 1005.2
20260903165510 21 41 4.8 17.7 0.00 0.00 0.00 33 1005.3
20260903164533 21 43 3.2 16.1 0.00 0.00 0.00 34 1005.3
20260903163541 20 44 1.6 11.3 0.00 0.00 0.00 35 1005.2
20260903162521 20 16 3.2 16.1 0.00 0.00 0.00 34 1005.3
20260903161543 20 6 1.6 16.1 0.00 0.00 0.00 37 1005.3
20260903160509 18 20 3.2 11.3 0.00 0.00 0.00 37 1005.2
20260903155438 16 51 1.6 11.3 0.00 0.00 0.00 42 1005.1
20260903154453 15 113 0.0 0.0 0.00 0.00 0.00 60 1005.1
20260903152257 13 99 0.0 0.0 0.00 0.00 0.00 66 1005.4